星链-11536 (STARLINK-11536)

导读 | 星芒AI

STARLINK-11536 是 SpaceX Starlink 卫星互联网项目中的一颗低轨卫星,属于第 5 批次部署的星链卫星之一。该卫星于 2020 年 11 月发射,运行在约 550 公里的轨道高度,旨在为全球提供高速互联网服务。Starlink 项目通过部署大量卫星,构建覆盖全球的通信网络,尤其服务于传统网络难以覆盖的偏远地区。STARLINK-11536 采用先进推进系统,具备自主变轨和避碰能力,是 SpaceX 实现全球宽带愿景的重要组成部分。

基本信息
目录编号:
62563
目录名称:
STARLINK-11536
国际标识:
2025-006K
轨道中心:
EARTH
卫星名称:
星链-11536
卫星全名:
星链-11536 (STARLINK-11536)
卫星状态:
在轨 (已飞行297 天)
发射日期:
2025-01-10 UTC
国别 :
美国 (US)
星等 :
--
轨道信息
数据来源 国际轨道数据
星历时间: 2025-11-02T17:27:53+0800
1天前
查看轨道信息
半长轴: 6734.166km
偏心率: 0.0002759
轨道倾角: 43.002°
近地点辐角 284.996°
升交点赤经 187.054°
平近点角 75.060°
近地点: 354.173km
远地点: 357.889km
周期: 91.661分钟
每日圈数: 15.710033
详细信息
固有亮度:
5
最大亮度:
2.5
卫星平台:
Starlink V1.0
覆盖范围:
全球
运营商:
太空探索技术公司
运营商所在国:
美国
制造商(研发单位):
太空探索技术公司
制造商所在国:
美国
使用方式:
暂无
卫星简介
Starlink 计划是 SpaceX 推出的全球卫星互联网项目,通过发射低轨道卫星,为全球尤其是偏远地区提供高速、低延迟的互联网服务。自 2019 年起,Starlink 已部署数千颗卫星,旨在缩小全球数字鸿沟,推动互联网普及。该项目还为军事、航空等行业提供通信支持,带来广泛经济效益。
2D轨道图
3D轨道图
轨道高度分析图
轨道倾角分析图
轨道综合分析图
查看轨道综合分析图